Weather in Shirinye

Russia / Yaroslavl Oblast     57°33′12″N   39°20′09″E
temp.,
°C
wind,
m/s
gust,
m/s
humid.,
%
clouds,
%
prec.,
mm/h
press.,
hPa
HPBL,
m
15 april, thu
thu1500:00+10nw227062 0.0 101828
03:00+8n379769 0.0 1018141
06:00+9nne4896100 0.0 1019351
09:00+9ne4889100 0.0 1020508
12:00+11ne5882100 0.0 1021675
15:00+11ne6972100 0.0 1021889
18:00+9ne61078100 0.0 1022828
21:00+7ne51384100 0.0 1024629
16 april, fri
fri1600:00+6ene61484100 0.0 1024580
03:00+5ene61382100 0.0 1025533
06:00+4ene51284100 0.0 1025496
09:00+6ene51077100 0.0 1026513
12:00+9ene696269 0.0 1027759
15:00+12ene685584 0.0 10261158
18:00+11ene595392 0.0 1026974
21:00+7ene5135832 0.0 1028498
17 april, sat
sat1700:00+5ene5136918 0.0 1028455
03:00+3ene4127745 0.0 1029370
06:00+2ene4137913 0.0 1030372
09:00+7ene510565 0.0 1030586
12:00+11ene68405 0.0 10291104
15:00+12ene67364 0.0 10281353
18:00+11ene48455 0.0 1028951
21:00+7ne411640 0.0 1029297
18 april, sun
sun1800:00+5ne411730 0.0 1029283
03:00+3ne310810 0.0 1029245
06:00+2ne310834 0.0 1029263
09:00+7ene4865100 0.0 1029511
12:00+10ene584799 0.0 10291301
15:00+11ene5743100 0.0 10281553
18:00+10ene4851100 0.0 1028749
21:00+7ne31067100 0.0 1029278
19 april, mon
mon1900:00+6e41177100 0.0 1030436
03:00+4ene4987100 0.0 1031319
06:00+2ene3886100 0.0 1031322
09:00+6e4756100 0.0 1031712
12:00+8e5639100 0.0 10311302
15:00+9e5637100 0.0 10301539
18:00+8e4644100 0.0 1030970
21:00+4e265782 0.0 1031117